Lid_Strength_Index
6 9 11 9 8 7 8 8 9 8 6 7 8 8 7 5 5 6 5 4 4 4 3 2 2 2 1 1 1 1 1 1 1 2 2 2 2 1 1 0 -0 0 -0 -0
8 11 8 7 7 7 8 9 9 7 6 7 7 8 6 6 5 5 5 4 4 4 3 3 3 2 2 2 1 1 -0 0 -0 1 0 1 1 1 1 0 -0 -0 0 0
10 9 7 8 8 8 8 9 9 9 7 7 8 9 7 6 5 4 4 4 4 4 4 4 3 3 2 2 2 1 1 0 1 0 1 1 0 1 1 1 1 0 -0 -0
8 7 8 8 8 7 10 7 8 8 9 11 7 13 9 7 6 5 5 4 4 4 3 3 3 3 2 2 1 1 1 1 1 -0 1 1 2 3 2 1 1 1 0 0
9 9 8 9 8 7 8 6 7 8 9 9 9 11 9 7 8 7 5 4 4 3 3 3 3 3 2 2 1 0 1 2 1 1 1 2 2 2 1 1 1 1 0 -0
7 6 7 7 7 6 6 7 8 8 9 13 10 11 11 9 8 7 6 5 4 4 4 4 3 2 2 1 1 1 1 1 1 0 1 1 2 2 2 2 2 1 1 0
8 8 6 6 8 6 7 9 13 14 14 14 9 11 10 9 8 8 8 6 4 4 4 4 4 3 3 2 2 2 2 2 1 1 1 1 1 1 1 2 1 2 1 1
12 12 8 6 7 9 8 9 12 16 15 13 9 12 10 7 7 6 7 7 4 4 4 4 4 4 3 3 2 2 2 2 1 2 3 2 3 1 2 1 1 1 1 1
12 11 7 6 6 7 9 10 8 11 12 13 12 10 8 7 7 7 7 6 5 5 4 4 3 4 3 3 3 2 2 2 2 1 1 2 1 1 1 1 1 1 0 1
9 13 8 7 6 6 8 7 11 10 18 19 14 12 12 10 9 7 7 6 6 5 4 4 4 3 3 2 2 1 2 2 2 2 1 1 1 0 0 0 1 1 0 0
8 12 11 8 9 9 9 10 9 10 12 18 18 15 9 10 9 10 7 6 5 5 4 4 3 3 2 2 3 2 1 1 1 1 0 -0 0 0 -0 0 0 0 0 0
8 11 14 11 7 6 7 9 10 15 15 15 16 18 8 9 9 9 7 5 5 4 4 3 3 3 2 2 2 2 1 2 1 1 1 0 1 0 0 0 0 -0 0 0
9 12 17 14 10 7 9 8 9 10 12 15 17 17 9 8 9 8 7 5 5 4 4 3 3 3 3 3 2 3 2 3 2 2 2 1 0 0 1 1 0 1 1 2
8 12 14 16 13 9 10 9 10 10 15 15 14 14 12 10 10 9 6 5 5 4 4 4 3 3 3 3 3 3 3 3 3 3 2 2 1 1 1 1 1 2 3 4
9 13 13 12 12 11 10 9 9 11 10 12 11 11 10 9 9 7 6 5 5 5 4 4 3 3 3 3 3 3 3 4 3 4 4 3 2 2 2 3 4 4 3 3
8 12 12 14 12 11 12 9 9 9 9 9 10 11 7 6 6 6 6 6 5 5 5 4 4 4 4 4 4 4 4 4 4 4 5 4 4 3 3 3 4 4 4 5
10 11 14 16 11 12 15 12 11 9 10 10 14 10 7 8 8 8 6 5 5 5 5 4 4 4 3 3 3 4 3 3 4 4 4 3 3 4 4 5 5 5 6 5
11 12 12 15 12 20 12 10 10 9 8 7 8 8 7 7 6 6 5 5 5 5 5 4 4 4 4 4 4 3 4 5 5 5 5 5 5 5 5 5 5 6 6 7
10 12 14 16 15 12 10 8 8 9 10 6 7 7 6 6 6 6 5 5 5 5 5 5 5 5 4 4 4 5 6 6 6 6 6 6 6 6 5 6 7 7 7 6
10 10 12 13 16 17 11 7 6 6 13 7 7 7 7 6 10 8 4 4 5 5 5 6 5 5 5 6 6 7 7 7 7 7 7 7 6 6 7 7 7 6 6 6
14 12 14 13 16 13 8 7 5 13 14 7 6 6 6 8 7 5 5 5 5 5 6 6 6 7 7 7 7 8 8 8 8 8 7 7 7 8 8 6 6 7 7 6
12 13 14 12 15 18 6 7 11 9 6 6 5 5 6 6 6 6 6 6 7 7 8 8 8 9 8 8 9 10 10 9 8 8 8 8 8 7 7 7 7 6 6 6
13 11 13 12 14 8 6 7 5 5 6 6 7 6 6 7 7 7 8 8 8 9 9 10 10 10 10 10 10 11 11 10 10 10 9 9 8 7 7 7 7 7 6 6
8 7 11 10 9 8 7 5 5 5 6 6 6 7 7 8 8 8 9 10 10 10 11 11 11 12 12 11 12 12 11 11 11 11 10 9 9 8 7 7 7 7 6 7
8 8 10 10 8 7 6 5 6 6 6 7 7 7 7 8 9 9 10 11 11 11 12 12 12 13 13 13 12 12 13 13 14 12 11 10 10 9 7 7 7 6 5 6
8 9 11 12 7 7 7 5 5 6 7 7 7 7 7 8 9 9 10 11 12 12 12 12 13 14 14 13 14 14 14 14 14 14 12 12 11 10 8 7 7 7 8 8